Home > Weather > Cluj-Napoca > Past weeks

Flag for Romania Past Weather in Cluj-Napoca, Romania — Yesterday and Last 2 Weeks

Now
79 °F

Passing clouds.


Feels Like: 80 °F
Forecast: 60 / 75 °F
Wind: 2 mph from North

Location: Cluj Airport-Napoca

Current Time: May 30, 2016 at 1:48:48 PM

Latest Report: May 30, 2016 at 1:00 PM


Visibility: N/A

Pressure: 29.80 "Hg

Humidity: 54%

Dew Point: 61 °F

Location of Cluj-NapocaLocation

Past Weather in Cluj-Napoca — Graph

°F

Cluj-Napoca Temperature Yesterday

Maximum temperature yesterday: 82 °F (at 4:00 PM)
Minimum temperature yesterday: 52 °F (at 5:00 AM)
Average temperature yesterday: 70 °F

High & Low Weather Summary for the Past Weeks

 TemperatureHumidityPressure
High82 °F (May 29, 4:00 PM)100% (May 20, 5:30 AM)30.12 "Hg (May 20, 5:30 AM)
Low41 °F (May 20, 5:00 AM)27% (May 21, 4:30 PM)29.56 "Hg (May 25, 3:00 AM)
Average60 °F66%29.93 "Hg
* Reported May 15 12:00 PM — May 30 12:30 PM, Cluj-Napoca, Weather by CustomWeather, © 2016

Note: Actual official high and low records may vary slightly from our data, if they occured in-between our weather recording intervals... More about our weather records

Advertising

Cluj-Napoca Weather History for the Previous 24 Hours

Scroll right to see more
 ConditionsComfort  
Time TempWeatherWind HumidityBarometerVisibility
12:30 PM
Mon, May 30
77 °FPassing clouds.2 mph57%29.83 "HgN/A
12:00 PM73 °FPassing clouds.3 mph65%29.83 "HgN/A
11:30 AM73 °FPassing clouds.5 mph65%29.83 "HgN/A
11:00 AM75 °FPassing clouds.5 mph61%29.83 "HgN/A
10:30 AM73 °FPassing clouds.3 mph65%29.83 "HgN/A
10:00 AM72 °FPassing clouds.2 mph69%29.83 "HgN/A
9:30 AM68 °FPassing clouds.2 mph73%29.80 "HgN/A
9:00 AM66 °FPassing clouds.3 mph73%29.83 "HgN/A
8:30 AM64 °FPassing clouds.2 mph78%29.83 "HgN/A
8:00 AM63 °FPassing clouds.2 mph77%29.83 "HgN/A
7:30 AM61 °FPassing clouds.2 mph83%29.83 "HgN/A
7:00 AM59 °FPassing clouds.2 mph88%29.83 "HgN/A
6:30 AM57 °FPassing clouds.1 mph94%29.83 "HgN/A
6:00 AM57 °FPassing clouds.2 mph94%29.83 "HgN/A
5:30 AM55 °FClear.1 mph94%29.83 "Hg10 mi
5:00 AM55 °FClear.No wind100%29.83 "Hg10 mi
4:00 AM57 °FClear.1 mph94%29.83 "Hg10 mi
3:00 AM59 °FClear.2 mph88%29.83 "Hg10 mi
2:00 AM61 °FClear.No wind83%29.83 "Hg10 mi
1:00 AM63 °FMild.5 mph77%29.83 "HgN/A
12:00 AM64 °FClear.3 mph78%29.83 "Hg10 mi
11:30 PM
Sun, May 29
64 °FClear.3 mph78%29.83 "Hg10 mi
11:00 PM64 °FClear.2 mph83%29.83 "Hg10 mi
10:30 PM68 °FClear.No wind73%29.83 "Hg10 mi
9:30 PM70 °FSunny.3 mph69%29.83 "Hg10 mi
9:00 PM73 °FSunny.1 mph61%29.83 "Hg10 mi
8:30 PM75 °FPassing clouds.3 mph57%29.83 "HgN/A
8:00 PM77 °FPassing clouds.3 mph51%29.80 "HgN/A
7:30 PM81 °FPassing clouds.3 mph39%29.80 "HgN/A
6:30 PM81 °FPassing clouds.2 mph39%29.83 "HgN/A
6:00 PM82 °FPassing clouds.5 mph37%29.83 "HgN/A
5:30 PM82 °FPassing clouds.5 mph35%29.83 "HgN/A
5:00 PM81 °FPassing clouds.5 mph37%29.83 "HgN/A
4:30 PM82 °FPassing clouds.5 mph35%29.86 "HgN/A
4:00 PM82 °FPassing clouds.6 mph32%29.86 "HgN/A
3:30 PM81 °FPassing clouds.5 mph34%29.86 "HgN/A
3:00 PM81 °FPassing clouds.7 mph42%29.86 "HgN/A
2:30 PM81 °FPassing clouds.8 mph39%29.86 "HgN/A
2:00 PM79 °FPassing clouds.8 mph42%29.86 "HgN/A
1:30 PM79 °FPassing clouds.7 mph42%29.89 "HgN/A
1:00 PM79 °FPassing clouds.7 mph48%29.89 "HgN/A
Weather by CustomWeather, © 2016

See weather overviewHow to use our weather pages